World > North America > United States > Wyoming > Orin  

Orin, WY Hourly Weather Updates

Feedback E-mail the Weather

Quick Clicks

Orin, WY Weather Maps

°F °C°F °C
Orin Weather Map
UTC Time: 4/23/2024, 01:23
Your Time:

Orin, WY Regional Weather

Expires:202404230200;;213052
ASUS45 KCYS 230110
RWRWY 

WYOMING REGIONAL WEATHER ROUNDUP
NATIONAL WEATHER SERVICE CHEYENNE WY
700 PM MDT MON APR 22 2024

NOTE:  "FAIR" INDICATES FEW OR NO CLOUDS BELOW 12,000 FEET
WITH NO SIGNIFICANT WEATHER AND/OR OBSTRUCTIONS TO VISIBILITY.


WYZ014>020-022>026-101>103-230200-
CENTRAL WYOMING
  
CITY           SKY/WX    TMP DP  RH WIND       PRES   REMARKS
BIG PINEY      FAIR      56   5  13 NW17G23   29.98R                  
PINEDALE       FAIR      52   3  14 NW18G28   30.00S                  
DUBOIS         FAIR      50   1  13 W21G28    29.94                   
LANDER         FAIR      63   2   8 W16G24    29.85R                  
RIVERTON       FAIR      61   9  12 NW20G32   29.85R                  
CASPER         FAIR      62  17  17 NW13      29.80R                  
DOUGLAS        FAIR      59  24  26 NE16      29.80R                  

$$

SKY/WX - Weather  TMP - Temperature  DP - Dew Point  RH - Humidity
WIND - Wind Direction/Speed PRES - Barometric Pressure VSB - Visibility
WCI - Wind Chill Index E13G22 Wind - East Wind 13 mph/Gusts of 22 mph

Trending Headlines

Trending Entertainment Headlines

Orin Radar Loop

Use the map search tool if you want to place a location marker on the radar map...

Orin Quick Facts

National Two Day Weather Forecast


E-mail the Orin Weather Forecast

Voice your opinion or tell us about page issues...